Regional Weather Roundup
Issued by NWS

Home | Current Version | Previous Version | Graphics & Text | Print | Product List | Glossary On
Versions: 1 2 3 4 5 6 7 8 9 10 11 12 13 14 15 16 17 18 19 20 21 22 23 24 25 26 27
000
ASUS45 KTFX 201410
RWRMT
MONTANA REGIONAL WEATHER ROUNDUP
NATIONAL WEATHER SERVICE GREAT FALLS MT
700 AM MST TUE FEB 20 2018

NOTE: "FAIR" INDICATES FEW OR NO CLOUDS BELOW 12000 FEET WITH NO
SIGNIFICANT WEATHER AND/OR OBSTRUCTIONS TO VISIBILITY.

MTZ001>007-043-201500-
WEST OF THE DIVIDE

CITY           SKY/WX    TMP DP  RH WIND       PRES   REMARKS
KALISPELL      CLOUDY    -7 -12  79 CALM      30.14S
MISSOULA       CLOUDY     2  -3  80 S3        30.13R
BUTTE          FAIR     -29 -34  76 CALM      29.91R
MULLAN PASS    MOCLDY    -6 -11  79 CALM      29.83R
ANACONDA         N/A    -17 -20  83 S5        29.97R
DEER LODGE       N/A    -13 -18  77 CALM      30.01R
HAMILTON         N/A      0  -8  71 MISG        N/A
RONAN            N/A    -22 -27  76 E5        30.16R
$$

MTZ008-052>055-201500-
SOUTHWEST MONTANA

CITY           SKY/WX    TMP DP  RH WIND       PRES   REMARKS
BOZEMAN        MOCLDY   -13 -19  75 CALM      30.01R
DILLON         FAIR     -21 -21 100 SW5       29.92R
ENNIS          CLOUDY   -13 -18  77 CALM      29.96R
W YELLOWSTONE  FAIR     -38 N/A N/A CALM      29.81R
THREE FORKS      N/A    -10 -18  68 CALM      30.01R
TWIN BRIDGES     N/A     -9 -21  55 CALM      29.95R
$$

MTZ009-010-012-014-046-048-049-054-201500-
EAST SLOPES AND CENTRAL MONTANA

CITY           SKY/WX    TMP DP  RH WIND       PRES   REMARKS
CUT BANK       FAIR      -7 -14  71 W9        29.96R WCI -24
GREAT FALLS    FAIR     -10 -17  71 SW17      29.98S WCI -34
HELENA         FAIR     -12 -17  78 CALM      30.07R
AUGUSTA        FAIR     -12 -18  73 W7        29.92R WCI -28
RAYNESFORD     FAIR      -2 -14  56 SW8       29.95S WCI -17
WHITE SULPHUR    N/A    -22 -27  76 CALM      29.91S
$$

MTZ011-013-016-021-045-047-050-051-201500-
NORTH CENTRAL MONTANA

CITY           SKY/WX    TMP DP  RH WIND       PRES   REMARKS
HAVRE          CLOUDY   -21 -26  77 SW12      30.09S HAZE    WCI -43
LEWISTOWN      FAIR     -18 -22  82 SE7       29.92S WCI -35
N BAR RANCH    FAIR     -11 -20  64 CALM      29.91S
CHINOOK          N/A    -31 -36  75 CALM      30.13R
GEYSER         FAIR      -2 -13  59 W13G20    29.92S WCI -21
STANFORD       FAIR      -7 -17  60 W8        29.89S WCI -23
$$

MTZ017>020-022>027-061-062-201500-
NORTHEAST MONTANA

CITY           SKY/WX    TMP DP  RH WIND       PRES   REMARKS
GLASGOW        CLOUDY   -13 -17  82 NW5       30.09S
GLENDIVE       FAIR      -4  -9  79 W6        30.11R WCI -16
JORDAN           N/A    -18 -22  82 W7        30.09R WCI -35
MALTA          CLEAR    -26 -33  68 W6        30.11R WCI -42
SIDNEY         FAIR      -3  -8  79 CALM      30.13R
WOLF POINT     CLOUDY    -9 -14  78 SW7       30.14R WCI -24
PLENTYWOOD       N/A     -4  -9  77 SW7       30.06R WCI -18
POPLAR           N/A    -11 -17  77 CALM      30.14R
$$

MTZ028>42-056>058-201500-
SOUTHCENTRAL AND SOUTHEAST MONTANA

CITY           SKY/WX    TMP DP  RH WIND       PRES   REMARKS
BAKER          CLOUDY    -9 -12  87 VRB3      30.06R FOG
BILLINGS       FAIR     -12 -17  78 SW16      30.00S WCI -35
LIVINGSTON     FAIR     -12 -17  78 NW13      29.94R WCI -33
MILES CITY     FAIR      -8 -11  86 W10       30.11R WCI -26
BIG TIMBER     CLEAR    -18 -24  76 VRB7      29.95S WCI -35
FORSYTH          N/A     -9 -13  84 SW5       30.10S
LAUREL           N/A    -18 -24  76 SW9       30.05R WCI -38
$$

REGIONAL REPORTS...DAKOTAS

CITY           SKY/WX    TMP DP  RH WIND       PRES   REMARKS
WILLISTON      FLURRIES  -1  -6  79 W12       30.11R WCI -18
MINOT          MOCLDY     1  -4  79 SW7       30.10R HAZE    WCI -12
DICKINSON      FAIR      -9 -13  83 W10       30.05R FOG     WCI -27
BEACH          CLOUDY    -6  -9  84 SW9       30.09R WCI -22
CROSBY         FAIR       0  -6  78 SW13      30.07S WCI -18
TIOGA          FAIR      -4  -8  84 SW10      30.07R WCI -21
WATFORD CITY   FAIR      -8 -11  84 SW8       30.11R WCI -23
BISMARCK       FLURRIES   5   0  79 NW7       30.13S WCI  -7
GRAND FORKS    LGT SNOW   5   1  83 N16       30.11S FOG     WCI -14
FARGO          LGT SNOW   5   2  87 N23       30.07R VSB 3/4 WCI -17
BUFFALO SD       N/A    -10 -15  78 W7        29.97S WCI -25
RAPID CITY     FAIR      -6 -10  83 NW9       30.04R WCI -23
$$

REGIONAL REPORTS...WYOMING/IDAHO/WASHINGTON

CITY           SKY/WX    TMP DP  RH WIND       PRES   REMARKS
GILLETTE       FAIR     -12 -17  78 W13       29.96R WCI -33
SHERIDAN       FAIR     -20 -25  77 CALM      29.98S
BUFFALO WY     FAIR      -9 -17  68 CALM      29.88S
CODY           FAIR     -19 -24  77 S3        29.92R
YELLOWSTONE LA   N/A    -31  32 100 CALM      29.73R
IDAHO FALLS    LGT SNOW  10   4  76 SW8       29.94R WCI  -2
SALMON         CLOUDY     9   1  70 CALM      30.01R
BOISE          FAIR      11   2  67 NW5       30.12R
SPOKANE        MOCLDY    11   4  73 SE5       30.14R
$$

REGIONAL REPORTS...ALBERTA

CITY           SKY/WX    TMP DP  RH WIND       PRES   REMARKS
CALGARY        MOCLDY     1  -8  66 S6        29.94S WCI -10
EDMONTON       CLOUDY     5  -8  56 W7        29.98R WCI  -7
FORT MCMURRAY  LGT SNOW -15 -20  76 NW5       30.20R
HIGH LEVEL     PTCLDY   -18 -24  76 N7        30.28R WCI -35
LETHBRIDGE     MOCLDY    -8 -15  71 SW12      29.99S WCI -27
LLOYDMINSTER   LGT SNOW   7   3  85 N7        29.92R FOG     WCI  -5
MEDICINE HAT   PTCLDY    -9 -17  70 SW14      30.04S WCI -31
MILK RIVER       N/A    -15 -22  70 W15         N/A  WCI -38
ONEFOUR          N/A    -18 -22  83 CALM        N/A
PEACE RIVER    LGT SNOW   0  -8  71 N6        30.14R WCI -12
PINCHER CREEK  CLOUDY    -9 -15  77 NW15      29.95S WCI -31
$$

REGIONAL REPORTS...SASKATCHEWAN

CITY           SKY/WX    TMP DP  RH WIND       PRES   REMARKS
CORONACH         N/A    -11 -17  77 NW7         N/A  WCI -26
ESTEVAN        CRYSTALS  -2  -8  78 SW8       30.06R WCI -17
MOOSE JAW        N/A     -6 -13  71 W17         N/A  WCI -28
PRINCE ALBERT  FLURRIES  -9 -13  84 VRB2      29.95R
REGINA         PTCLDY   -13 -18  77 SW5       30.00F
ROCKGLEN         N/A    -15 -20  76 W9          N/A  WCI -33
SASKATOON      PTCLDY     0  -8  71 SW10      29.95F WCI -17
SWIFT CURRENT  CLEAR     -8 -17  65 SW16      29.94F WCI -30
VAL MARIE        N/A    -24 -31  69 NE2         N/A
$$




USA.gov is the U.S. government's official web portal to all federal, state and local government web resources and services.